sat.trackr.live / text

‹ back to catalog

SAL-E

NORAD 68458 · 2026-067AU

PAYLOAD ACTIVE UNKNOWN

§ Identity

Operator
Country
US
Launch date
2026-03-30
Launch site
AFWTR
Launch vehicle
Mass (kg)
RCS (m²)

External: N2YO · Heavens-Above · Gunter

§ Orbital elements

Epoch: 2026-09-20T03:34:10.439616Z

Period
94.80 min
Inclination
97.4581°
Eccentricity
0.0007728
Mean motion
15.18940262 rev/d
Perigee alt
503.7 km
Apogee alt
514.4 km
Semi-major
6,887.2 km
B*
2.6744e-4
RAAN
220.0618°
Arg perigee
99.5751°
Mean anomaly
260.6357°
Rev number
2,634

§ Raw data

SAL-E1 68458U 26067AU  26263.14873194  .00005523  00000+0  26744-3 0  99982 68458  97.4581 220.0618 0007728  99.5751 260.6357 15.18940262 26348

JSON: /api/v1/satellites/68458 · /tle

For live sub-satellite position, see the globe view (requires WebGL).

§ Visibility from observer

Set your observer location to see the next 7 days of passes ≥ 10°. The values pass through the URL so the page stays shareable.

No JS? Fill the form by hand. The geolocation button needs JavaScript.

§ Radio — SatNOGS DB

ModeDescriptionDownlinkUplink
FSK AX.25 FSK9k6 BEACON 436.965 MHz

1 transmitter · refreshed weekly from db.satnogs.org